Showing default

TJS-1, 40892

Orbit data source: Space-Track

TJS-1, 40892 is a payload satellite owned by CASC (CN) in GEO that was launched on Sat, 12 Sep 2015 UTC via a CHANG ZHENG 3B launch vehicle from the Xichang Space Center, China (XSC). Payload-class satellites include a variety of spacecraft equipped with specific instruments for various scientific and technological missions. These include communications satellites like Starlink; space stations such as the ISS; scientific satellites like the Hubble; Earth observation satellites from companies like Planet Labs, Umbra, and HawkEye 360; GPS; miniature CubeSats for education and research; and military/defense satellites.

Not visible in the next 10 days
Identifier
40892, 2015-046A
Orbit
GEO
Country
Flag of CNCN / PRC
Related business
Manufacturer
CAST
Mission
Operational Defense Sigint
Bus & Motor
DFH-4?, DFH-4 LAE
Mass
~4,000 kg wet, ~2,500 kg dry
Launch date (UTC)
2015-09-12 (11 years ago)
Launch vehicle
CHANG ZHENG 3B
Launch site
Xichang Space Center, China (XSC)
Object type
Payload
Rocket body
Debris
Shape & HBR
Box + 2 Pan + 1 Dish, 16.0 m
Radar Cross Section
35.403 m², Large (>1 m²)

Expand to show TLE details & history
Last TLE update: 23 hours ago

TLE from 23 hours ago
0 TJS-1
1 40892U 15046A   26172.49419822 -.00000157  00000-0  00000+0 0  9999
2 40892   0.3355  84.9191 0005700   1.7947 155.9330  1.00270865 39617
Epoch: 2026-06-21T11:51Z
TLE epoch observation values (Epoch: 2026-06-21T11:51:38.726Z)
Latitude
0.10988°
Longitude
155.08009°
Altitude
35,808.363 km
Speed
3.073 km/s
True Right ascension
16h 10m 44s
True Declination
0° 06' 35"
Sunlit
Object was in daylight at epoch
Visualization orbit readout
Latitude
Unknown
Longitude
Unknown
Altitude
Unknown
Speed
Unknown
Apparent Right ascension
Unknown
Apparent Declination
Unknown
Sunlit
N/A
Visualization observer readout
Local Sidereal Time
21:35:26
Azimuth
Unknown
Elevation
Unknown
Doppler factor
Unknown
Orbital elements
Apogee altitude
35,811.958 km
Perigee altitude
35,763.889 km
Semi-major axis
42,166.06 km
Eccentricity
0.00057
Inclination
0.3355°
RAAN
84.9191°
Arg. of periapsis
1.7947°
True anomaly
155.95962°
Mean anomaly
155.933°
Eccentric anomaly
155.94631°
Mean motion
0.25067 °/min
Orbital period
1,436.16 mins
BSTAR
0
Loading maneuver chart data...
Computing Atmospheric mass density...
Loading historical data...
Loading historical data...
Loading historical data...
Loading historical data...
Loading historical data...
Loading historical data...
Loading historical data...
Other satellites on launch #46 in the year 2015 (2015-09-12 UTC)

Documentation

Showing up to 5 results
|